Location: *
(41.7492°S, 135.4150°W)
Time: 18:57:43
(UTC+00:00)

Cosmos 2227 Rocket - Pass Details

Date: 20 September 2021
Orbit: 837 x 846 km, 71.0° (Epoch: 16 October)

Event Time Altitude Azimuth Distance (km) Brightness Sun altitude
Exits shadow 12:55:31 11° 221° (SW) 2,445 4.4 -22.4°
Drops below altitude 10° 12:56:37 10° 209° (SSW) 2,486 4.5 -22.2°
Sets 13:01:41 0° 171° (S) 3,428 5.7 -21.4°
